Time,TemperatureF,DewpointF,PressureIn,WindDirection,WindDirectionDegrees,WindSpeedMPH,WindSpeedGustMPH,Humidity,HourlyPrecipIn,Conditions,Clouds,dailyrainin,SoftwareType,DateUTC
2013-06-19 00:00:00,49.9,45.0,30.05,East,101,2.0,0.0,83,0.00,,OVC003,0.01,VWS V14.01,2013-06-19 04:00:00,
2013-06-19 00:01:00,50.0,45.0,30.05,East,101,2.0,0.0,83,0.00,,OVC003,0.01,VWS V14.01,2013-06-19 04:01:00,
2013-06-19 00:02:00,50.0,45.0,30.05,East,101,2.0,0.0,83,0.00,,OVC003,0.01,VWS V14.01,2013-06-19 04:02:00,
2013-06-19 00:04:00,49.9,45.0,30.05,East,101,2.0,0.0,83,0.00,,OVC003,0.01,VWS V14.01,2013-06-19 04:04:00,
2013-06-19 00:05:00,49.9,45.0,30.05,East,101,2.0,0.0,83,0.00,,OVC003,0.01,VWS V14.01,2013-06-19 04:05:00,
2013-06-19 00:10:00,49.7,44.8,30.05,East,101,2.0,0.0,83,0.00,,OVC003,0.00,VWS V14.01,2013-06-19 04:10:00,
2013-06-19 00:15:00,49.5,44.9,30.05,East,101,2.0,0.0,84,0.00,,OVC003,0.00,VWS V14.01,2013-06-19 04:15:00,
2013-06-19 00:16:00,49.6,45.0,30.05,East,101,2.0,0.0,84,0.00,,OVC003,0.00,VWS V14.01,2013-06-19 04:16:00,
2013-06-19 00:20:00,49.4,44.8,30.05,East,101,2.0,0.0,84,0.00,,OVC003,0.00,VWS V14.01,2013-06-19 04:20:00,
2013-06-19 00:21:00,49.5,44.9,30.05,East,101,2.0,0.0,84,0.00,,OVC003,0.00,VWS V14.01,2013-06-19 04:21:00,
2013-06-19 00:25:00,49.2,44.6,30.05,East,101,2.0,0.0,84,0.00,,OVC003,0.00,VWS V14.01,2013-06-19 04:25:00,
2013-06-19 00:26:00,49.3,44.7,30.05,East,101,2.0,0.0,84,0.00,,OVC003,0.00,VWS V14.01,2013-06-19 04:26:00,
2013-06-19 00:30:00,48.9,44.3,30.05,East,101,2.0,0.0,84,0.00,,OVC003,0.00,VWS V14.01,2013-06-19 04:30:00,
2013-06-19 00:31:00,49.2,44.6,30.05,East,101,2.0,0.0,84,0.00,,OVC003,0.00,VWS V14.01,2013-06-19 04:31:00,
2013-06-19 00:35:00,48.6,44.3,30.05,East,101,2.0,0.0,85,0.00,,OVC003,0.00,VWS V14.01,2013-06-19 04:35:00,
2013-06-19 00:36:00,48.8,44.5,30.05,East,101,2.0,0.0,85,0.00,,OVC003,0.00,VWS V14.01,2013-06-19 04:36:00,
2013-06-19 00:40:00,48.5,44.5,30.05,East,101,2.0,0.0,86,0.00,,OVC003,0.00,VWS V14.01,2013-06-19 04:40:00,
2013-06-19 00:41:00,48.6,44.3,30.05,East,101,2.0,0.0,85,0.00,,OVC003,0.00,VWS V14.01,2013-06-19 04:41:00,
2013-06-19 00:45:00,48.5,44.5,30.05,East,101,2.0,0.0,86,0.00,,OVC003,0.00,VWS V14.01,2013-06-19 04:45:00,
2013-06-19 00:46:00,48.5,44.5,30.05,East,101,2.0,0.0,86,0.00,,OVC003,0.00,VWS V14.01,2013-06-19 04:46:00,
2013-06-19 00:50:00,48.4,44.4,30.05,East,101,2.0,0.0,86,0.00,,OVC003,0.00,VWS V14.01,2013-06-19 04:50:00,
2013-06-19 00:51:00,48.5,44.5,30.05,East,101,2.0,0.0,86,0.00,,OVC003,0.00,VWS V14.01,2013-06-19 04:51:00,
2013-06-19 00:55:00,48.2,44.2,30.05,East,101,2.0,0.0,86,0.00,,OVC003,0.00,VWS V14.01,2013-06-19 04:55:00,
2013-06-19 00:56:00,48.3,44.3,30.05,East,101,2.0,0.0,86,0.00,,OVC003,0.00,VWS V14.01,2013-06-19 04:56:00,
2013-06-19 01:00:00,48.1,44.1,30.05,East,101,2.0,0.0,86,0.00,,OVC003,0.00,VWS V14.01,2013-06-19 05:00:00,
2013-06-19 01:01:00,48.2,44.2,30.05,East,101,2.0,0.0,86,0.00,,OVC003,0.00,VWS V14.01,2013-06-19 05:01:00,
2013-06-19 01:05:00,48.0,44.0,30.05,East,101,2.0,0.0,86,0.00,,OVC003,0.00,VWS V14.01,2013-06-19 05:05:00,
2013-06-19 01:06:00,48.1,44.1,30.05,East,101,2.0,0.0,86,0.00,,OVC003,0.00,VWS V14.01,2013-06-19 05:06:00,
2013-06-19 01:10:00,47.8,43.8,30.05,East,101,2.0,0.0,86,0.00,,OVC003,0.00,VWS V14.01,2013-06-19 05:10:00,
2013-06-19 01:11:00,48.0,44.0,30.05,East,101,2.0,0.0,86,0.00,,OVC003,0.00,VWS V14.01,2013-06-19 05:11:00,
2013-06-19 01:15:00,47.6,43.9,30.05,East,101,2.0,0.0,87,0.00,,OVC003,0.00,VWS V14.01,2013-06-19 05:15:00,
2013-06-19 01:16:00,47.8,44.1,30.05,East,101,2.0,0.0,87,0.00,,OVC003,0.00,VWS V14.01,2013-06-19 05:16:00,
2013-06-19 01:20:00,47.4,43.7,30.05,East,101,2.0,0.0,87,0.00,,OVC003,0.00,VWS V14.01,2013-06-19 05:20:00,
2013-06-19 01:21:00,47.5,43.8,30.05,East,101,2.0,0.0,87,0.00,,OVC003,0.00,VWS V14.01,2013-06-19 05:21:00,
2013-06-19 01:25:00,47.2,43.5,30.05,East,101,2.0,0.0,87,0.00,,OVC003,0.00,VWS V14.01,2013-06-19 05:25:00,
2013-06-19 01:26:00,47.3,43.6,30.05,East,101,2.0,0.0,87,0.00,,OVC003,0.00,VWS V14.01,2013-06-19 05:26:00,
2013-06-19 01:30:00,47.1,43.7,30.05,East,101,2.0,0.0,88,0.00,,OVC003,0.00,VWS V14.01,2013-06-19 05:30:00,
2013-06-19 01:31:00,47.2,43.5,30.05,East,101,2.0,0.0,87,0.00,,OVC003,0.00,VWS V14.01,2013-06-19 05:31:00,
2013-06-19 01:35:00,47.0,43.6,30.05,East,101,2.0,0.0,88,0.00,,OVC003,0.00,VWS V14.01,2013-06-19 05:35:00,
2013-06-19 01:36:00,47.1,43.7,30.05,East,101,2.0,0.0,88,0.00,,OVC003,0.00,VWS V14.01,2013-06-19 05:36:00,
2013-06-19 01:40:00,46.9,43.5,30.05,East,101,2.0,0.0,88,0.00,,OVC003,0.00,VWS V14.01,2013-06-19 05:40:00,
2013-06-19 01:41:00,46.9,43.5,30.05,East,101,2.0,0.0,88,0.00,,OVC003,0.00,VWS V14.01,2013-06-19 05:41:00,
2013-06-19 01:45:00,46.8,43.4,30.05,East,101,2.0,0.0,88,0.00,,OVC003,0.00,VWS V14.01,2013-06-19 05:45:00,
2013-06-19 01:46:00,46.9,43.5,30.05,East,101,2.0,0.0,88,0.00,,OVC003,0.00,VWS V14.01,2013-06-19 05:46:00,
2013-06-19 01:50:00,46.7,43.3,30.05,East,101,2.0,0.0,88,0.00,,OVC003,0.00,VWS V14.01,2013-06-19 05:50:00,
2013-06-19 01:51:00,46.8,43.4,30.05,East,101,2.0,0.0,88,0.00,,OVC003,0.00,VWS V14.01,2013-06-19 05:51:00,
2013-06-19 01:55:00,46.5,43.1,30.05,East,101,2.0,0.0,88,0.00,,OVC003,0.00,VWS V14.01,2013-06-19 05:55:00,
2013-06-19 01:56:00,46.7,43.3,30.05,East,101,2.0,0.0,88,0.00,,OVC003,0.00,VWS V14.01,2013-06-19 05:56:00,
2013-06-19 02:00:00,48.1,44.1,30.05,East,101,2.0,0.0,86,0.00,,OVC003,0.00,VWS V14.01,2013-06-19 06:00:00,
2013-06-19 02:01:00,46.5,43.1,30.05,East,101,2.0,0.0,88,0.00,,OVC003,0.00,VWS V14.01,2013-06-19 06:01:00,
2013-06-19 02:05:00,48.0,44.0,30.05,East,101,2.0,0.0,86,0.00,,OVC003,0.00,VWS V14.01,2013-06-19 06:05:00,
2013-06-19 02:06:00,46.3,43.0,30.05,East,101,2.0,0.0,88,0.00,,OVC003,0.00,VWS V14.01,2013-06-19 06:06:00,
2013-06-19 02:10:00,47.8,43.8,30.05,East,101,2.0,0.0,86,0.00,,OVC003,0.00,VWS V14.01,2013-06-19 06:10:00,
2013-06-19 02:11:00,46.2,42.8,30.05,East,101,2.0,0.0,88,0.00,,OVC003,0.00,VWS V14.01,2013-06-19 06:11:00,
2013-06-19 02:15:00,47.6,43.9,30.05,East,101,2.0,0.0,87,0.00,,OVC003,0.00,VWS V14.01,2013-06-19 06:15:00,
2013-06-19 02:16:00,46.1,42.8,30.05,East,101,2.0,0.0,88,0.00,,OVC003,0.00,VWS V14.01,2013-06-19 06:16:00,
2013-06-19 02:20:00,45.8,42.8,30.05,East,101,2.0,0.0,89,0.00,,OVC003,0.00,VWS V14.01,2013-06-19 06:20:00,
2013-06-19 02:21:00,45.9,42.5,30.05,East,101,2.0,0.0,88,0.00,,OVC003,0.00,VWS V14.01,2013-06-19 06:21:00,
2013-06-19 02:25:00,45.8,42.8,30.05,East,101,2.0,0.0,89,0.00,,OVC003,0.00,VWS V14.01,2013-06-19 06:25:00,
2013-06-19 02:26:00,45.8,42.8,30.05,East,101,2.0,0.0,89,0.00,,OVC003,0.00,VWS V14.01,2013-06-19 06:26:00,
2013-06-19 02:30:00,45.7,42.7,30.05,East,101,2.0,0.0,89,0.00,,OVC003,0.00,VWS V14.01,2013-06-19 06:30:00,
2013-06-19 02:31:00,45.8,42.8,30.05,East,101,2.0,0.0,89,0.00,,OVC003,0.00,VWS V14.01,2013-06-19 06:31:00,
2013-06-19 02:35:00,45.6,42.5,30.05,East,101,2.0,0.0,89,0.00,,OVC003,0.00,VWS V14.01,2013-06-19 06:35:00,
2013-06-19 02:36:00,45.7,42.7,30.05,East,101,2.0,0.0,89,0.00,,OVC003,0.00,VWS V14.01,2013-06-19 06:36:00,
2013-06-19 02:40:00,45.5,42.5,30.05,East,101,2.0,0.0,89,0.00,,OVC003,0.00,VWS V14.01,2013-06-19 06:40:00,
2013-06-19 02:41:00,45.6,42.5,30.05,East,101,2.0,0.0,89,0.00,,OVC003,0.00,VWS V14.01,2013-06-19 06:41:00,
2013-06-19 02:45:00,45.4,42.3,30.06,East,101,2.0,0.0,89,0.00,,OVC003,0.00,VWS V14.01,2013-06-19 06:45:00,
2013-06-19 02:47:00,45.5,42.5,30.05,East,101,2.0,0.0,89,0.00,,OVC003,0.00,VWS V14.01,2013-06-19 06:47:00,
2013-06-19 02:50:00,46.7,43.3,30.05,East,101,2.0,0.0,88,0.00,,OVC003,0.00,VWS V14.01,2013-06-19 06:50:00,
2013-06-19 02:52:00,45.3,42.3,30.06,East,101,2.0,0.0,89,0.00,,OVC003,0.00,VWS V14.01,2013-06-19 06:52:00,
2013-06-19 02:55:00,45.1,42.1,30.06,East,101,2.0,0.0,89,0.00,,OVC003,0.00,VWS V14.01,2013-06-19 06:55:00,
2013-06-19 02:57:00,45.2,42.2,30.06,East,101,2.0,0.0,89,0.00,,OVC003,0.00,VWS V14.01,2013-06-19 06:57:00,
2013-06-19 03:00:00,45.0,42.0,30.06,East,101,2.0,0.0,89,0.00,,OVC003,0.00,VWS V14.01,2013-06-19 07:00:00,
2013-06-19 03:02:00,45.1,42.1,30.06,East,101,2.0,0.0,89,0.00,,OVC003,0.00,VWS V14.01,2013-06-19 07:02:00,
2013-06-19 03:05:00,45.0,42.0,30.06,East,101,2.0,0.0,89,0.00,,OVC003,0.00,VWS V14.01,2013-06-19 07:05:00,
2013-06-19 03:07:00,45.0,42.0,30.06,East,101,2.0,0.0,89,0.00,,OVC003,0.00,VWS V14.01,2013-06-19 07:07:00,
2013-06-19 03:10:00,44.9,41.9,30.06,East,101,2.0,0.0,89,0.00,,OVC003,0.00,VWS V14.01,2013-06-19 07:10:00,
2013-06-19 03:12:00,45.0,42.0,30.06,East,101,2.0,0.0,89,0.00,,OVC003,0.00,VWS V14.01,2013-06-19 07:12:00,
2013-06-19 03:15:00,44.7,41.7,30.06,East,101,2.0,0.0,89,0.00,,OVC003,0.00,VWS V14.01,2013-06-19 07:15:00,
2013-06-19 03:17:00,44.8,41.8,30.06,East,101,2.0,0.0,89,0.00,,OVC003,0.00,VWS V14.01,2013-06-19 07:17:00,
2013-06-19 03:20:00,44.5,41.8,30.06,East,101,2.0,0.0,90,0.00,,OVC003,0.00,VWS V14.01,2013-06-19 07:20:00,
2013-06-19 03:22:00,44.7,41.7,30.06,East,101,2.0,0.0,89,0.00,,OVC003,0.00,VWS V14.01,2013-06-19 07:22:00,
2013-06-19 03:25:00,44.4,41.4,30.06,East,101,2.0,0.0,89,0.00,,OVC003,0.00,VWS V14.01,2013-06-19 07:25:00,
2013-06-19 03:27:00,44.5,41.8,30.06,East,101,2.0,0.0,90,0.00,,OVC003,0.00,VWS V14.01,2013-06-19 07:27:00,
2013-06-19 03:30:00,44.3,41.6,30.07,East,101,2.0,0.0,90,0.00,,OVC003,0.00,VWS V14.01,2013-06-19 07:30:00,
2013-06-19 03:32:00,44.4,41.4,30.06,East,101,2.0,0.0,89,0.00,,OVC003,0.00,VWS V14.01,2013-06-19 07:32:00,
2013-06-19 03:35:00,44.2,41.5,30.07,East,101,2.0,0.0,90,0.00,,OVC003,0.00,VWS V14.01,2013-06-19 07:35:00,
2013-06-19 03:37:00,44.3,41.6,30.07,East,101,2.0,0.0,90,0.00,,OVC003,0.00,VWS V14.01,2013-06-19 07:37:00,
2013-06-19 03:40:00,44.2,41.5,30.07,East,101,2.0,0.0,90,0.00,,OVC003,0.00,VWS V14.01,2013-06-19 07:40:00,
2013-06-19 03:42:00,44.2,41.5,30.07,East,101,2.0,0.0,90,0.00,,OVC003,0.00,VWS V14.01,2013-06-19 07:42:00,
2013-06-19 03:45:00,44.1,41.4,30.07,East,101,2.0,0.0,90,0.00,,OVC003,0.00,VWS V14.01,2013-06-19 07:45:00,
2013-06-19 03:47:00,44.1,41.4,30.07,East,101,2.0,0.0,90,0.00,,OVC003,0.00,VWS V14.01,2013-06-19 07:47:00,
2013-06-19 03:50:00,44.0,41.3,30.07,East,101,2.0,0.0,90,0.00,,OVC003,0.00,VWS V14.01,2013-06-19 07:50:00,
2013-06-19 03:52:00,44.1,41.4,30.07,East,101,2.0,0.0,90,0.00,,OVC003,0.00,VWS V14.01,2013-06-19 07:52:00,
2013-06-19 03:55:00,43.8,41.1,30.07,East,101,2.0,0.0,90,0.00,,OVC003,0.00,VWS V14.01,2013-06-19 07:55:00,
2013-06-19 03:57:00,43.9,41.2,30.07,East,101,2.0,0.0,90,0.00,,OVC003,0.00,VWS V14.01,2013-06-19 07:57:00,
2013-06-19 04:00:00,43.8,41.1,30.08,East,101,2.0,0.0,90,0.00,,OVC003,0.00,VWS V14.01,2013-06-19 08:00:00,
2013-06-19 04:02:00,43.8,41.1,30.07,East,101,2.0,0.0,90,0.00,,OVC003,0.00,VWS V14.01,2013-06-19 08:02:00,
2013-06-19 04:05:00,43.8,41.1,30.08,East,101,2.0,0.0,90,0.00,,OVC003,0.00,VWS V14.01,2013-06-19 08:05:00,
2013-06-19 04:07:00,43.8,41.1,30.08,East,101,2.0,0.0,90,0.00,,OVC003,0.00,VWS V14.01,2013-06-19 08:07:00,
2013-06-19 04:10:00,43.8,41.1,30.08,East,101,2.0,0.0,90,0.00,,OVC003,0.00,VWS V14.01,2013-06-19 08:10:00,
2013-06-19 04:12:00,43.7,41.0,30.08,East,101,2.0,0.0,90,0.00,,OVC003,0.00,VWS V14.01,2013-06-19 08:12:00,
2013-06-19 04:15:00,43.7,41.0,30.08,East,101,2.0,0.0,90,0.00,,OVC003,0.00,VWS V14.01,2013-06-19 08:15:00,
2013-06-19 04:17:00,43.7,41.0,30.08,East,101,2.0,0.0,90,0.00,,OVC003,0.00,VWS V14.01,2013-06-19 08:17:00,
2013-06-19 04:20:00,43.6,40.9,30.08,East,101,2.0,0.0,90,0.00,,OVC003,0.00,VWS V14.01,2013-06-19 08:20:00,
2013-06-19 04:22:00,43.7,41.0,30.08,East,101,2.0,0.0,90,0.00,,OVC003,0.00,VWS V14.01,2013-06-19 08:22:00,
2013-06-19 04:25:00,43.5,40.8,30.08,East,101,2.0,0.0,90,0.00,,OVC003,0.00,VWS V14.01,2013-06-19 08:25:00,
2013-06-19 04:27:00,43.5,40.8,30.08,East,101,2.0,0.0,90,0.00,,OVC003,0.00,VWS V14.01,2013-06-19 08:27:00,
2013-06-19 04:30:00,43.4,40.7,30.08,East,101,2.0,0.0,90,0.00,,OVC003,0.00,VWS V14.01,2013-06-19 08:30:00,
2013-06-19 04:32:00,43.4,40.7,30.08,East,101,2.0,0.0,90,0.00,,OVC003,0.00,VWS V14.01,2013-06-19 08:32:00,
2013-06-19 04:35:00,43.3,40.6,30.08,East,101,2.0,0.0,90,0.00,,OVC003,0.00,VWS V14.01,2013-06-19 08:35:00,
2013-06-19 04:37:00,43.4,40.7,30.08,East,101,2.0,0.0,90,0.00,,OVC003,0.00,VWS V14.01,2013-06-19 08:37:00,
2013-06-19 04:40:00,43.3,40.6,30.08,East,101,2.0,0.0,90,0.00,,OVC003,0.00,VWS V14.01,2013-06-19 08:40:00,
2013-06-19 04:42:00,43.3,40.6,30.08,East,101,2.0,0.0,90,0.00,,OVC003,0.00,VWS V14.01,2013-06-19 08:42:00,
2013-06-19 04:45:00,43.3,40.6,30.09,East,101,2.0,0.0,90,0.00,,OVC003,0.00,VWS V14.01,2013-06-19 08:45:00,
2013-06-19 04:47:00,43.3,40.6,30.08,East,101,2.0,0.0,90,0.00,,OVC003,0.00,VWS V14.01,2013-06-19 08:47:00,
2013-06-19 04:50:00,43.2,40.8,30.09,East,101,2.0,0.0,91,0.00,,OVC003,0.00,VWS V14.01,2013-06-19 08:50:00,
2013-06-19 04:52:00,43.3,40.6,30.09,East,101,2.0,0.0,90,0.00,,OVC003,0.00,VWS V14.01,2013-06-19 08:52:00,
2013-06-19 04:55:00,43.2,40.8,30.09,East,101,2.0,0.0,91,0.00,,OVC003,0.00,VWS V14.01,2013-06-19 08:55:00,
2013-06-19 04:57:00,43.2,40.8,30.09,East,101,2.0,0.0,91,0.00,,OVC003,0.00,VWS V14.01,2013-06-19 08:57:00,
2013-06-19 05:00:00,43.2,40.8,30.09,East,101,2.0,0.0,91,0.00,,OVC003,0.00,VWS V14.01,2013-06-19 09:00:00,
2013-06-19 05:02:00,43.2,40.8,30.09,East,101,2.0,0.0,91,0.00,,OVC003,0.00,VWS V14.01,2013-06-19 09:02:00,
2013-06-19 05:05:00,43.2,40.8,30.09,East,101,2.0,0.0,91,0.00,,OVC003,0.00,VWS V14.01,2013-06-19 09:05:00,
2013-06-19 05:07:00,43.2,40.8,30.09,East,101,2.0,0.0,91,0.00,,OVC003,0.00,VWS V14.01,2013-06-19 09:07:00,
2013-06-19 05:10:00,43.2,40.8,30.09,East,101,2.0,0.0,91,0.00,,OVC003,0.00,VWS V14.01,2013-06-19 09:10:00,
2013-06-19 05:12:00,43.2,40.8,30.09,East,101,2.0,0.0,91,0.00,,OVC003,0.00,VWS V14.01,2013-06-19 09:12:00,
2013-06-19 05:15:00,43.2,40.8,30.09,East,101,2.0,0.0,91,0.00,,OVC003,0.00,VWS V14.01,2013-06-19 09:15:00,
2013-06-19 05:17:00,43.2,40.8,30.09,East,101,2.0,0.0,91,0.00,,OVC003,0.00,VWS V14.01,2013-06-19 09:17:00,
2013-06-19 05:20:00,43.1,40.7,30.09,East,101,2.0,0.0,91,0.00,,OVC003,0.00,VWS V14.01,2013-06-19 09:20:00,
2013-06-19 05:22:00,43.1,40.7,30.09,East,101,2.0,0.0,91,0.00,,OVC003,0.00,VWS V14.01,2013-06-19 09:22:00,
2013-06-19 05:25:00,43.0,40.6,30.09,East,101,2.0,0.0,91,0.00,,OVC003,0.00,VWS V14.01,2013-06-19 09:25:00,
2013-06-19 05:27:00,43.1,40.7,30.09,East,101,2.0,0.0,91,0.00,,OVC003,0.00,VWS V14.01,2013-06-19 09:27:00,
2013-06-19 05:30:00,43.0,40.6,30.10,East,101,2.0,0.0,91,0.00,,OVC003,0.00,VWS V14.01,2013-06-19 09:30:00,
2013-06-19 05:32:00,43.0,40.6,30.09,East,101,2.0,0.0,91,0.00,,OVC003,0.00,VWS V14.01,2013-06-19 09:32:00,
2013-06-19 05:35:00,42.9,40.5,30.10,East,101,2.0,0.0,91,0.00,,OVC003,0.00,VWS V14.01,2013-06-19 09:35:00,
2013-06-19 05:37:00,43.0,40.6,30.10,East,101,2.0,0.0,91,0.00,,OVC003,0.00,VWS V14.01,2013-06-19 09:37:00,
2013-06-19 05:40:00,42.9,40.5,30.10,East,101,2.0,0.0,91,0.00,,OVC003,0.00,VWS V14.01,2013-06-19 09:40:00,
2013-06-19 05:42:00,42.9,40.5,30.10,East,101,2.0,0.0,91,0.00,,OVC003,0.00,VWS V14.01,2013-06-19 09:42:00,
2013-06-19 05:45:00,42.8,40.4,30.10,East,101,2.0,0.0,91,0.00,,OVC003,0.00,VWS V14.01,2013-06-19 09:45:00,
2013-06-19 05:47:00,42.9,40.5,30.10,East,101,2.0,0.0,91,0.00,,OVC003,0.00,VWS V14.01,2013-06-19 09:47:00,
2013-06-19 05:50:00,42.7,40.3,30.10,East,101,2.0,0.0,91,0.00,,OVC003,0.00,VWS V14.01,2013-06-19 09:50:00,
2013-06-19 05:52:00,42.8,40.4,30.10,East,101,2.0,0.0,91,0.00,,OVC003,0.00,VWS V14.01,2013-06-19 09:52:00,
2013-06-19 05:55:00,42.6,40.2,30.10,East,101,2.0,0.0,91,0.00,,OVC003,0.00,VWS V14.01,2013-06-19 09:55:00,
2013-06-19 05:57:00,42.7,40.3,30.10,East,101,2.0,0.0,91,0.00,,OVC003,0.00,VWS V14.01,2013-06-19 09:57:00,
2013-06-19 06:00:00,42.5,40.1,30.11,East,101,2.0,0.0,91,0.00,,OVC003,0.00,VWS V14.01,2013-06-19 10:00:00,
2013-06-19 06:02:00,42.6,40.2,30.10,East,101,2.0,0.0,91,0.00,,OVC003,0.00,VWS V14.01,2013-06-19 10:02:00,
2013-06-19 06:05:00,42.6,40.2,30.11,East,101,2.0,0.0,91,0.00,,OVC003,0.00,VWS V14.01,2013-06-19 10:05:00,
2013-06-19 06:07:00,42.5,40.1,30.11,East,101,2.0,0.0,91,0.00,,OVC003,0.00,VWS V14.01,2013-06-19 10:07:00,
2013-06-19 06:10:00,42.6,40.2,30.11,East,101,2.0,0.0,91,0.00,,OVC003,0.00,VWS V14.01,2013-06-19 10:10:00,
2013-06-19 06:12:00,42.6,40.2,30.11,East,101,2.0,0.0,91,0.00,,OVC003,0.00,VWS V14.01,2013-06-19 10:12:00,
2013-06-19 06:15:00,42.6,40.2,30.12,East,101,2.0,0.0,91,0.00,,OVC003,0.00,VWS V14.01,2013-06-19 10:15:00,
2013-06-19 06:17:00,42.6,40.2,30.11,East,101,2.0,0.0,91,0.00,,OVC003,0.00,VWS V14.01,2013-06-19 10:17:00,
2013-06-19 06:20:00,42.6,40.2,30.12,East,101,2.0,0.0,91,0.00,,OVC003,0.00,VWS V14.01,2013-06-19 10:20:00,
2013-06-19 06:22:00,42.6,40.2,30.12,East,101,2.0,0.0,91,0.00,,OVC003,0.00,VWS V14.01,2013-06-19 10:22:00,
2013-06-19 06:25:00,42.6,40.2,30.12,East,101,2.0,0.0,91,0.00,,OVC003,0.00,VWS V14.01,2013-06-19 10:25:00,
2013-06-19 06:27:00,42.6,40.2,30.12,East,101,2.0,0.0,91,0.00,,OVC003,0.00,VWS V14.01,2013-06-19 10:27:00,
2013-06-19 06:30:00,42.7,40.3,30.12,East,101,2.0,0.0,91,0.00,,OVC003,0.00,VWS V14.01,2013-06-19 10:30:00,
2013-06-19 06:32:00,42.6,40.2,30.12,East,101,2.0,0.0,91,0.00,,OVC003,0.00,VWS V14.01,2013-06-19 10:32:00,
2013-06-19 06:35:00,42.7,40.3,30.12,East,101,2.0,0.0,91,0.00,,OVC003,0.00,VWS V14.01,2013-06-19 10:35:00,
2013-06-19 06:37:00,42.7,40.3,30.12,East,101,2.0,0.0,91,0.00,,OVC003,0.00,VWS V14.01,2013-06-19 10:37:00,
2013-06-19 06:40:00,42.8,40.4,30.12,East,101,2.0,0.0,91,0.00,,OVC003,0.00,VWS V14.01,2013-06-19 10:40:00,
2013-06-19 06:42:00,42.7,40.3,30.12,East,101,2.0,0.0,91,0.00,,OVC003,0.00,VWS V14.01,2013-06-19 10:42:00,
2013-06-19 06:45:00,42.8,40.4,30.12,East,101,2.0,0.0,91,0.00,,OVC003,0.00,VWS V14.01,2013-06-19 10:45:00,
2013-06-19 06:47:00,42.8,40.4,30.12,East,101,2.0,0.0,91,0.00,,OVC003,0.00,VWS V14.01,2013-06-19 10:47:00,
2013-06-19 06:50:00,42.9,40.7,30.12,East,101,2.0,0.0,92,0.00,,OVC003,0.00,VWS V14.01,2013-06-19 10:50:00,
2013-06-19 06:52:00,42.9,40.7,30.12,East,101,2.0,0.0,92,0.00,,OVC003,0.00,VWS V14.01,2013-06-19 10:52:00,
2013-06-19 06:55:00,43.0,40.8,30.12,East,101,2.0,0.0,92,0.00,,OVC003,0.00,VWS V14.01,2013-06-19 10:55:00,
2013-06-19 06:58:00,43.0,40.8,30.12,East,101,2.0,0.0,92,0.00,,OVC003,0.00,VWS V14.01,2013-06-19 10:58:00,
2013-06-19 07:00:00,43.1,40.9,30.13,East,101,2.0,0.0,92,0.00,,OVC003,0.00,VWS V14.01,2013-06-19 11:00:00,
2013-06-19 07:03:00,43.1,40.9,30.12,East,101,2.0,0.0,92,0.00,,OVC003,0.00,VWS V14.01,2013-06-19 11:03:00,
2013-06-19 07:05:00,43.3,41.1,30.13,East,101,2.0,0.0,92,0.00,,OVC003,0.00,VWS V14.01,2013-06-19 11:05:00,
2013-06-19 07:08:00,43.2,41.0,30.13,East,101,2.0,0.0,92,0.00,,OVC003,0.00,VWS V14.01,2013-06-19 11:08:00,
2013-06-19 07:10:00,43.5,41.3,30.13,East,101,2.0,0.0,92,0.00,,OVC003,0.00,VWS V14.01,2013-06-19 11:10:00,
2013-06-19 07:13:00,43.4,41.2,30.13,East,101,2.0,0.0,92,0.00,,OVC003,0.00,VWS V14.01,2013-06-19 11:13:00,
2013-06-19 07:15:00,43.7,41.5,30.14,East,101,2.0,0.0,92,0.00,,OVC003,0.00,VWS V14.01,2013-06-19 11:15:00,
2013-06-19 07:18:00,43.6,41.4,30.13,East,101,2.0,0.0,92,0.00,,OVC003,0.00,VWS V14.01,2013-06-19 11:18:00,
2013-06-19 07:20:00,44.0,41.8,30.14,East,101,2.0,0.0,92,0.00,,OVC003,0.00,VWS V14.01,2013-06-19 11:20:00,
2013-06-19 07:23:00,43.8,41.6,30.14,East,101,2.0,0.0,92,0.00,,OVC003,0.00,VWS V14.01,2013-06-19 11:23:00,
2013-06-19 07:25:00,44.3,42.1,30.14,East,101,2.0,0.0,92,0.00,,OVC003,0.00,VWS V14.01,2013-06-19 11:25:00,
2013-06-19 07:28:00,44.2,42.0,30.14,East,101,2.0,0.0,92,0.00,,OVC003,0.00,VWS V14.01,2013-06-19 11:28:00,
2013-06-19 07:30:00,44.6,42.4,30.13,East,101,2.0,0.0,92,0.00,,OVC003,0.00,VWS V14.01,2013-06-19 11:30:00,
2013-06-19 07:33:00,44.5,42.3,30.14,East,101,2.0,0.0,92,0.00,,OVC003,0.00,VWS V14.01,2013-06-19 11:33:00,
2013-06-19 07:35:00,45.0,42.8,30.13,East,101,2.0,0.0,92,0.00,,OVC003,0.00,VWS V14.01,2013-06-19 11:35:00,
2013-06-19 07:38:00,44.9,42.7,30.13,East,101,2.0,0.0,92,0.00,,OVC003,0.00,VWS V14.01,2013-06-19 11:38:00,
2013-06-19 07:40:00,45.4,43.2,30.13,East,101,2.0,0.0,92,0.00,,OVC003,0.00,VWS V14.01,2013-06-19 11:40:00,
2013-06-19 07:43:00,45.2,43.0,30.13,East,101,2.0,0.0,92,0.00,,OVC003,0.00,VWS V14.01,2013-06-19 11:43:00,
2013-06-19 07:45:00,45.8,43.9,30.13,East,101,2.0,0.0,93,0.00,,OVC003,0.00,VWS V14.01,2013-06-19 11:45:00,
2013-06-19 07:48:00,45.6,43.4,30.13,East,101,2.0,0.0,92,0.00,,OVC003,0.00,VWS V14.01,2013-06-19 11:48:00,
2013-06-19 07:50:00,46.3,44.4,30.13,East,101,2.0,0.0,93,0.00,,OVC003,0.00,VWS V14.01,2013-06-19 11:50:00,
2013-06-19 07:53:00,46.1,44.2,30.13,East,101,2.0,0.0,93,0.00,,OVC003,0.00,VWS V14.01,2013-06-19 11:53:00,
2013-06-19 07:55:00,46.7,44.8,30.13,East,101,2.0,0.0,93,0.00,,OVC003,0.00,VWS V14.01,2013-06-19 11:55:00,
2013-06-19 07:58:00,46.5,44.6,30.13,East,101,2.0,0.0,93,0.00,,OVC003,0.00,VWS V14.01,2013-06-19 11:58:00,
2013-06-19 08:00:00,47.0,45.1,30.14,East,101,2.0,0.0,93,0.00,,OVC003,0.00,VWS V14.01,2013-06-19 12:00:00,
2013-06-19 08:03:00,46.9,45.0,30.13,East,101,2.0,0.0,93,0.00,,OVC003,0.00,VWS V14.01,2013-06-19 12:03:00,
2013-06-19 08:05:00,47.4,45.5,30.14,East,101,2.0,0.0,93,0.00,,OVC003,0.00,VWS V14.01,2013-06-19 12:05:00,
2013-06-19 08:08:00,47.2,45.3,30.14,East,101,2.0,0.0,93,0.00,,OVC003,0.00,VWS V14.01,2013-06-19 12:08:00,
2013-06-19 08:10:00,47.9,46.0,30.14,East,101,2.0,0.0,93,0.00,,OVC003,0.00,VWS V14.01,2013-06-19 12:10:00,
2013-06-19 08:13:00,47.7,45.8,30.14,East,101,2.0,0.0,93,0.00,,OVC003,0.00,VWS V14.01,2013-06-19 12:13:00,
2013-06-19 08:15:00,48.2,46.3,30.15,East,101,2.0,0.0,93,0.00,,OVC003,0.00,VWS V14.01,2013-06-19 12:15:00,
2013-06-19 08:18:00,48.0,46.1,30.14,East,101,2.0,0.0,93,0.00,,OVC003,0.00,VWS V14.01,2013-06-19 12:18:00,
2013-06-19 08:20:00,48.5,46.6,30.15,East,101,2.0,0.0,93,0.00,,OVC003,0.00,VWS V14.01,2013-06-19 12:20:00,
2013-06-19 08:23:00,48.3,46.4,30.15,East,101,2.0,0.0,93,0.00,,OVC003,0.00,VWS V14.01,2013-06-19 12:23:00,
2013-06-19 08:25:00,48.9,47.0,30.15,East,101,2.0,0.0,93,0.00,,OVC003,0.00,VWS V14.01,2013-06-19 12:25:00,
2013-06-19 08:28:00,48.7,46.8,30.15,East,101,2.0,0.0,93,0.00,,OVC003,0.00,VWS V14.01,2013-06-19 12:28:00,
2013-06-19 08:30:00,49.4,47.5,30.14,East,101,2.0,0.0,93,0.00,,OVC003,0.00,VWS V14.01,2013-06-19 12:30:00,
2013-06-19 08:33:00,49.2,47.3,30.15,East,101,2.0,0.0,93,0.00,,OVC003,0.00,VWS V14.01,2013-06-19 12:33:00,
2013-06-19 08:35:00,50.1,48.2,30.14,East,101,2.0,0.0,93,0.00,,OVC003,0.00,VWS V14.01,2013-06-19 12:35:00,
2013-06-19 08:38:00,49.7,47.8,30.14,East,101,2.0,0.0,93,0.00,,OVC003,0.00,VWS V14.01,2013-06-19 12:38:00,
2013-06-19 08:40:00,50.9,49.0,30.14,East,101,2.0,0.0,93,0.00,,OVC003,0.00,VWS V14.01,2013-06-19 12:40:00,
2013-06-19 08:43:00,50.5,48.6,30.14,East,101,2.0,0.0,93,0.00,,OVC003,0.00,VWS V14.01,2013-06-19 12:43:00,
2013-06-19 08:45:00,51.3,49.3,30.14,East,101,2.0,0.0,93,0.00,,OVC003,0.00,VWS V14.01,2013-06-19 12:45:00,
2013-06-19 08:48:00,51.1,49.2,30.14,East,101,2.0,0.0,93,0.00,,OVC003,0.00,VWS V14.01,2013-06-19 12:48:00,
2013-06-19 08:50:00,51.8,49.8,30.14,East,101,2.0,0.0,93,0.00,,OVC003,0.00,VWS V14.01,2013-06-19 12:50:00,
2013-06-19 08:53:00,51.5,49.5,30.14,East,101,2.0,0.0,93,0.00,,OVC003,0.00,VWS V14.01,2013-06-19 12:53:00,
2013-06-19 08:55:00,52.2,50.2,30.14,East,101,2.0,0.0,93,0.00,,OVC003,0.00,VWS V14.01,2013-06-19 12:55:00,
2013-06-19 08:58:00,52.0,50.0,30.14,East,101,2.0,0.0,93,0.00,,OVC003,0.00,VWS V14.01,2013-06-19 12:58:00,
2013-06-19 09:00:00,52.8,50.8,30.14,East,101,2.0,2.0,93,0.00,,OVC003,0.00,VWS V14.01,2013-06-19 13:00:00,
2013-06-19 09:03:00,52.6,50.6,30.14,East,101,2.0,2.0,93,0.00,,OVC003,0.00,VWS V14.01,2013-06-19 13:03:00,
2013-06-19 09:05:00,53.1,50.8,30.14,East,101,2.0,0.0,92,0.00,,OVC003,0.00,VWS V14.01,2013-06-19 13:05:00,
2013-06-19 09:08:00,53.0,51.0,30.14,East,101,2.0,0.0,93,0.00,,OVC003,0.00,VWS V14.01,2013-06-19 13:08:00,
2013-06-19 09:10:00,53.6,51.3,30.14,East,101,2.0,0.0,92,0.00,,OVC003,0.00,VWS V14.01,2013-06-19 13:10:00,
2013-06-19 09:13:00,53.4,51.1,30.14,East,101,2.0,0.0,92,0.00,,OVC003,0.00,VWS V14.01,2013-06-19 13:13:00,
2013-06-19 09:15:00,54.0,51.4,30.13,East,101,2.0,0.0,91,0.00,,OVC003,0.00,VWS V14.01,2013-06-19 13:15:00,
2013-06-19 09:18:00,53.9,51.6,30.14,East,101,2.0,0.0,92,0.00,,OVC003,0.00,VWS V14.01,2013-06-19 13:18:00,
2013-06-19 09:20:00,54.4,51.5,30.13,East,101,2.0,0.0,90,0.00,,OVC003,0.00,VWS V14.01,2013-06-19 13:20:00,
2013-06-19 09:23:00,54.2,51.6,30.13,East,101,2.0,0.0,91,0.00,,OVC003,0.00,VWS V14.01,2013-06-19 13:23:00,
2013-06-19 09:25:00,55.2,51.4,30.13,East,101,2.0,2.0,87,0.00,,OVC003,0.00,VWS V14.01,2013-06-19 13:25:00,
2013-06-19 09:28:00,54.7,51.5,30.13,East,101,2.0,0.0,89,0.00,,OVC003,0.00,VWS V14.01,2013-06-19 13:28:00,
2013-06-19 09:30:00,56.5,51.7,30.13,ENE,72,2.0,3.0,84,0.00,,OVC003,0.00,VWS V14.01,2013-06-19 13:30:00,
2013-06-19 09:33:00,56.0,51.6,30.13,ENE,72,2.0,3.0,85,0.00,,OVC003,0.00,VWS V14.01,2013-06-19 13:33:00,
2013-06-19 09:35:00,57.3,50.8,30.13,ENE,72,2.0,2.0,79,0.00,,OVC003,0.00,VWS V14.01,2013-06-19 13:35:00,
2013-06-19 09:38:00,56.9,51.5,30.13,ENE,73,2.0,2.0,82,0.00,,OVC003,0.00,VWS V14.01,2013-06-19 13:38:00,
2013-06-19 09:40:00,58.0,50.5,30.13,ENE,73,2.0,2.0,76,0.00,,OVC003,0.00,VWS V14.01,2013-06-19 13:40:00,
2013-06-19 09:43:00,57.7,50.5,30.13,ENE,73,2.0,2.0,77,0.00,,OVC003,0.00,VWS V14.01,2013-06-19 13:43:00,
2013-06-19 09:45:00,58.7,51.2,30.13,ENE,73,2.0,0.0,76,0.00,,OVC003,0.00,VWS V14.01,2013-06-19 13:45:00,
2013-06-19 09:48:00,58.4,50.9,30.13,ENE,72,2.0,0.0,76,0.00,,OVC003,0.00,VWS V14.01,2013-06-19 13:48:00,
2013-06-19 09:50:00,59.0,50.7,30.13,ENE,73,2.0,0.0,74,0.00,,OVC003,0.00,VWS V14.01,2013-06-19 13:50:00,
2013-06-19 09:53:00,59.0,51.5,30.13,ENE,73,2.0,0.0,76,0.00,,OVC003,0.00,VWS V14.01,2013-06-19 13:53:00,
2013-06-19 09:55:00,59.4,50.0,30.13,ENE,73,2.0,0.0,71,0.00,,OVC003,0.00,VWS V14.01,2013-06-19 13:55:00,
2013-06-19 09:58:00,59.1,50.5,30.13,ENE,73,2.0,0.0,73,0.00,,OVC003,0.00,VWS V14.01,2013-06-19 13:58:00,
2013-06-19 10:00:00,59.8,47.6,30.13,ENE,73,2.0,2.0,64,0.00,,OVC003,0.00,VWS V14.01,2013-06-19 14:00:00,
2013-06-19 10:03:00,59.6,49.0,30.13,ENE,73,2.0,2.0,68,0.00,,OVC003,0.00,VWS V14.01,2013-06-19 14:03:00,
2013-06-19 10:05:00,60.6,48.4,30.13,ENE,72,2.0,2.0,64,0.00,,OVC003,0.00,VWS V14.01,2013-06-19 14:05:00,
2013-06-19 10:08:00,60.2,48.8,30.13,ENE,73,2.0,0.0,66,0.00,,OVC003,0.00,VWS V14.01,2013-06-19 14:08:00,
2013-06-19 10:10:00,61.3,48.6,30.13,ENE,72,2.0,0.0,63,0.00,,OVC003,0.00,VWS V14.01,2013-06-19 14:10:00,
2013-06-19 10:13:00,61.0,48.3,30.13,ENE,73,2.0,0.0,63,0.00,,OVC003,0.00,VWS V14.01,2013-06-19 14:13:00,
2013-06-19 10:15:00,61.7,48.1,30.13,ENE,73,2.0,2.0,61,0.00,,OVC003,0.00,VWS V14.01,2013-06-19 14:15:00,
2013-06-19 10:18:00,61.6,48.5,30.13,ENE,73,2.0,2.0,62,0.00,,OVC003,0.00,VWS V14.01,2013-06-19 14:18:00,
2013-06-19 10:20:00,62.0,47.5,30.13,ENE,72,4.0,4.0,59,0.00,,OVC003,0.00,VWS V14.01,2013-06-19 14:20:00,
2013-06-19 10:23:00,61.9,47.9,30.13,ENE,72,3.0,3.0,60,0.00,,OVC003,0.00,VWS V14.01,2013-06-19 14:23:00,
2013-06-19 10:25:00,62.2,47.7,30.13,ENE,72,2.0,2.0,59,0.00,,OVC003,0.00,VWS V14.01,2013-06-19 14:25:00,
2013-06-19 10:28:00,62.1,47.2,30.13,ENE,72,2.0,2.0,58,0.00,,OVC003,0.00,VWS V14.01,2013-06-19 14:28:00,
2013-06-19 10:30:00,62.4,47.0,30.13,ENE,72,2.0,2.0,57,0.00,,OVC003,0.00,VWS V14.01,2013-06-19 14:30:00,
2013-06-19 10:33:00,62.3,47.3,30.13,ENE,72,2.0,2.0,58,0.00,,OVC003,0.00,VWS V14.01,2013-06-19 14:33:00,
2013-06-19 10:35:00,62.6,46.7,30.13,ENE,72,2.0,0.0,56,0.00,,OVC003,0.00,VWS V14.01,2013-06-19 14:35:00,
2013-06-19 10:38:00,62.5,46.6,30.13,ENE,72,2.0,0.0,56,0.00,,OVC003,0.00,VWS V14.01,2013-06-19 14:38:00,
2013-06-19 10:40:00,62.9,47.5,30.13,ENE,72,3.0,3.0,57,0.00,,OVC003,0.00,VWS V14.01,2013-06-19 14:40:00,
2013-06-19 10:43:00,62.8,46.9,30.13,ENE,72,2.0,0.0,56,0.00,,OVC003,0.00,VWS V14.01,2013-06-19 14:43:00,
2013-06-19 10:45:00,63.1,47.2,30.13,ENE,72,2.0,2.0,56,0.00,,OVC003,0.00,VWS V14.01,2013-06-19 14:45:00,
2013-06-19 10:48:00,63.1,47.6,30.13,ENE,72,2.0,2.0,57,0.00,,OVC003,0.00,VWS V14.01,2013-06-19 14:48:00,
2013-06-19 10:50:00,63.3,48.3,30.13,ENE,72,2.0,2.0,58,0.00,,OVC003,0.00,VWS V14.01,2013-06-19 14:50:00,
2013-06-19 10:53:00,63.3,47.8,30.13,ENE,72,2.0,2.0,57,0.00,,OVC003,0.00,VWS V14.01,2013-06-19 14:53:00,
2013-06-19 10:55:00,63.4,47.5,30.13,ENE,72,2.0,2.0,56,0.00,,OVC003,0.00,VWS V14.01,2013-06-19 14:55:00,
2013-06-19 10:58:00,63.4,47.0,30.13,ENE,72,2.0,2.0,55,0.00,,OVC003,0.00,VWS V14.01,2013-06-19 14:58:00,
2013-06-19 11:00:00,63.5,45.6,30.13,ENE,72,2.0,2.0,52,0.00,,OVC003,0.00,VWS V14.01,2013-06-19 15:00:00,
2013-06-19 11:03:00,63.5,46.6,30.13,ENE,72,2.0,2.0,54,0.00,,OVC003,0.00,VWS V14.01,2013-06-19 15:03:00,
2013-06-19 11:05:00,63.6,45.7,30.13,ENE,72,2.0,2.0,52,0.00,,OVC003,0.00,VWS V14.01,2013-06-19 15:05:00,
2013-06-19 11:08:00,63.5,45.6,30.13,ENE,72,2.0,2.0,52,0.00,,OVC003,0.00,VWS V14.01,2013-06-19 15:08:00,
2013-06-19 11:10:00,63.9,47.0,30.13,ENE,72,2.0,2.0,54,0.00,,OVC003,0.00,VWS V14.01,2013-06-19 15:10:00,
2013-06-19 11:13:00,63.8,46.4,30.13,ENE,72,2.0,2.0,53,0.00,,OVC003,0.00,VWS V14.01,2013-06-19 15:13:00,
2013-06-19 11:15:00,64.1,46.1,30.14,ENE,72,2.0,2.0,52,0.00,,OVC003,0.00,VWS V14.01,2013-06-19 15:15:00,
2013-06-19 11:19:00,64.1,46.6,30.13,ENE,72,2.0,2.0,53,0.00,,OVC003,0.00,VWS V14.01,2013-06-19 15:19:00,
2013-06-19 11:20:00,64.3,45.3,30.14,ENE,72,2.0,2.0,50,0.00,,OVC003,0.00,VWS V14.01,2013-06-19 15:20:00,
2013-06-19 11:24:00,64.2,45.2,30.14,ENE,72,2.0,2.0,50,0.00,,OVC003,0.00,VWS V14.01,2013-06-19 15:24:00,
2013-06-19 11:25:00,64.5,46.0,30.14,ENE,72,2.0,2.0,51,0.00,,OVC003,0.00,VWS V14.01,2013-06-19 15:25:00,
2013-06-19 11:29:00,64.3,45.8,30.14,ENE,72,2.0,0.0,51,0.00,,OVC003,0.00,VWS V14.01,2013-06-19 15:29:00,
2013-06-19 11:30:00,64.7,45.1,30.13,ENE,72,3.0,3.0,49,0.00,,OVC003,0.00,VWS V14.01,2013-06-19 15:30:00,
2013-06-19 11:34:00,64.6,45.0,30.14,ENE,72,2.0,2.0,49,0.00,,OVC003,0.00,VWS V14.01,2013-06-19 15:34:00,
2013-06-19 11:35:00,64.9,44.8,30.13,ENE,72,2.0,2.0,48,0.00,,OVC003,0.00,VWS V14.01,2013-06-19 15:35:00,
2013-06-19 11:39:00,64.8,44.7,30.13,ENE,72,2.0,2.0,48,0.00,,OVC003,0.00,VWS V14.01,2013-06-19 15:39:00,
2013-06-19 11:40:00,65.0,45.4,30.13,ENE,72,2.0,2.0,49,0.00,,OVC003,0.00,VWS V14.01,2013-06-19 15:40:00,
2013-06-19 11:44:00,64.9,45.8,30.13,ENE,72,3.0,3.0,50,0.00,,OVC003,0.00,VWS V14.01,2013-06-19 15:44:00,
2013-06-19 11:45:00,65.0,45.4,30.13,ENE,72,3.0,3.0,49,0.00,,OVC003,0.00,VWS V14.01,2013-06-19 15:45:00,
2013-06-19 11:49:00,65.0,45.9,30.13,ENE,72,2.0,2.0,50,0.00,,OVC003,0.00,VWS V14.01,2013-06-19 15:49:00,
2013-06-19 11:50:00,65.2,45.6,30.13,ENE,71,2.0,2.0,49,0.00,,OVC003,0.00,VWS V14.01,2013-06-19 15:50:00,
2013-06-19 11:54:00,65.1,46.0,30.13,ENE,71,2.0,2.0,50,0.00,,OVC003,0.00,VWS V14.01,2013-06-19 15:54:00,
2013-06-19 11:55:00,65.4,44.7,30.13,ENE,71,2.0,2.0,47,0.00,,OVC003,0.00,VWS V14.01,2013-06-19 15:55:00,
2013-06-19 11:59:00,65.4,44.7,30.13,ENE,71,2.0,2.0,47,0.00,,OVC003,0.00,VWS V14.01,2013-06-19 15:59:00,
2013-06-19 12:00:00,65.5,45.3,30.13,ENE,71,2.0,2.0,48,0.00,,OVC003,0.00,VWS V14.01,2013-06-19 16:00:00,
2013-06-19 12:04:00,65.4,44.1,30.13,ENE,72,2.0,2.0,46,0.00,,OVC003,0.00,VWS V14.01,2013-06-19 16:04:00,
2013-06-19 12:05:00,65.5,44.2,30.13,ENE,71,2.0,2.0,46,0.00,,OVC003,0.00,VWS V14.01,2013-06-19 16:05:00,
2013-06-19 12:09:00,65.5,43.0,30.13,ENE,71,2.0,2.0,44,0.00,,OVC003,0.00,VWS V14.01,2013-06-19 16:09:00,
2013-06-19 12:10:00,65.7,44.9,30.13,ENE,69,2.0,2.0,47,0.00,,OVC003,0.00,VWS V14.01,2013-06-19 16:10:00,
2013-06-19 12:14:00,65.6,44.3,30.13,ENE,71,2.0,2.0,46,0.00,,OVC003,0.00,VWS V14.01,2013-06-19 16:14:00,
2013-06-19 12:15:00,65.9,44.0,30.13,ENE,68,4.0,4.0,45,0.00,,OVC003,0.00,VWS V14.01,2013-06-19 16:15:00,
2013-06-19 12:19:00,65.9,45.1,30.13,ENE,69,2.0,2.0,47,0.00,,OVC003,0.00,VWS V14.01,2013-06-19 16:19:00,
2013-06-19 12:20:00,65.9,45.1,30.13,ENE,68,2.0,3.0,47,0.00,,OVC003,0.00,VWS V14.01,2013-06-19 16:20:00,
2013-06-19 12:24:00,65.9,44.6,30.13,ENE,68,2.0,3.0,46,0.00,,OVC003,0.00,VWS V14.01,2013-06-19 16:24:00,
2013-06-19 12:25:00,66.2,45.4,30.13,ENE,68,2.0,2.0,47,0.00,,OVC003,0.00,VWS V14.01,2013-06-19 16:25:00,
2013-06-19 12:29:00,66.1,46.4,30.13,ENE,69,2.0,2.0,49,0.00,,OVC003,0.00,VWS V14.01,2013-06-19 16:29:00,
2013-06-19 12:30:00,66.4,45.6,30.13,ENE,69,3.0,3.0,47,0.00,,OVC003,0.00,VWS V14.01,2013-06-19 16:30:00,
2013-06-19 12:34:00,66.3,45.5,30.13,ENE,68,2.0,2.0,47,0.00,,OVC003,0.00,VWS V14.01,2013-06-19 16:34:00,
2013-06-19 12:35:00,66.8,45.4,30.13,ENE,69,2.0,2.0,46,0.00,,OVC003,0.00,VWS V14.01,2013-06-19 16:35:00,
2013-06-19 12:39:00,66.7,45.8,30.13,ENE,68,2.0,2.0,47,0.00,,OVC003,0.00,VWS V14.01,2013-06-19 16:39:00,
2013-06-19 12:40:00,66.9,45.5,30.13,ENE,69,2.0,2.0,46,0.00,,OVC003,0.00,VWS V14.01,2013-06-19 16:40:00,
2013-06-19 12:44:00,66.8,45.4,30.13,ENE,69,3.0,3.0,46,0.00,,OVC003,0.00,VWS V14.01,2013-06-19 16:44:00,
2013-06-19 12:45:00,66.9,44.9,30.12,ENE,69,2.0,2.0,45,0.00,,OVC003,0.00,VWS V14.01,2013-06-19 16:45:00,
2013-06-19 12:49:00,66.9,44.3,30.13,ENE,69,2.0,2.0,44,0.00,,OVC003,0.00,VWS V14.01,2013-06-19 16:49:00,
2013-06-19 12:50:00,67.0,45.0,30.12,ENE,68,2.0,2.0,45,0.00,,OVC003,0.00,VWS V14.01,2013-06-19 16:50:00,
2013-06-19 12:54:00,67.0,44.4,30.12,ENE,69,2.0,2.0,44,0.00,,OVC003,0.00,VWS V14.01,2013-06-19 16:54:00,
2013-06-19 12:55:00,67.1,45.7,30.12,ENE,68,2.0,2.0,46,0.00,,OVC003,0.00,VWS V14.01,2013-06-19 16:55:00,
2013-06-19 12:59:00,67.1,45.7,30.12,ENE,68,3.0,3.0,46,0.00,,OVC003,0.00,VWS V14.01,2013-06-19 16:59:00,
2013-06-19 13:00:00,67.3,45.2,30.11,ENE,68,2.0,2.0,45,0.00,,OVC003,0.00,VWS V14.01,2013-06-19 17:00:00,
2013-06-19 13:04:00,67.2,44.6,30.12,ENE,68,2.0,2.0,44,0.00,,OVC003,0.00,VWS V14.01,2013-06-19 17:04:00,
2013-06-19 13:05:00,67.5,47.1,30.11,ENE,71,2.0,3.0,48,0.00,,OVC003,0.00,VWS V14.01,2013-06-19 17:05:00,
2013-06-19 13:09:00,67.4,46.5,30.11,ENE,71,3.0,3.0,47,0.00,,OVC003,0.00,VWS V14.01,2013-06-19 17:09:00,
2013-06-19 13:10:00,67.7,46.8,30.11,ENE,71,3.0,3.0,47,0.00,,OVC003,0.00,VWS V14.01,2013-06-19 17:10:00,
2013-06-19 13:14:00,67.7,46.2,30.11,ENE,71,2.0,2.0,46,0.00,,OVC003,0.00,VWS V14.01,2013-06-19 17:14:00,
2013-06-19 13:15:00,67.9,44.0,30.11,ENE,71,2.0,3.0,42,0.00,,OVC003,0.00,VWS V14.01,2013-06-19 17:15:00,
2013-06-19 13:19:00,67.9,45.8,30.11,ENE,71,3.0,3.0,45,0.00,,OVC003,0.00,VWS V14.01,2013-06-19 17:19:00,
2013-06-19 13:20:00,67.9,45.2,30.11,ENE,71,4.0,4.0,44,0.00,,OVC003,0.00,VWS V14.01,2013-06-19 17:20:00,
2013-06-19 13:24:00,67.9,44.6,30.11,ENE,71,3.0,3.0,43,0.00,,OVC003,0.00,VWS V14.01,2013-06-19 17:24:00,
2013-06-19 13:25:00,68.0,44.7,30.11,ENE,71,2.0,2.0,43,0.00,,OVC003,0.00,VWS V14.01,2013-06-19 17:25:00,
2013-06-19 13:29:00,68.0,44.1,30.11,ENE,71,2.0,2.0,42,0.00,,OVC003,0.00,VWS V14.01,2013-06-19 17:29:00,
2013-06-19 13:30:00,68.1,46.0,30.11,NNE,31,2.0,3.0,45,0.00,,OVC003,0.00,VWS V14.01,2013-06-19 17:30:00,
2013-06-19 13:34:00,68.0,45.3,30.11,NNE,31,4.0,4.0,44,0.00,,OVC003,0.00,VWS V14.01,2013-06-19 17:34:00,
2013-06-19 13:35:00,68.3,46.2,30.11,NNE,31,2.0,2.0,45,0.00,,OVC003,0.00,VWS V14.01,2013-06-19 17:35:00,
2013-06-19 13:39:00,68.2,45.5,30.11,NNE,31,2.0,2.0,44,0.00,,OVC003,0.00,VWS V14.01,2013-06-19 17:39:00,
2013-06-19 13:40:00,68.4,43.8,30.11,East,87,2.0,3.0,41,0.00,,OVC003,0.00,VWS V14.01,2013-06-19 17:40:00,
2013-06-19 13:44:00,68.4,44.4,30.11,East,87,2.0,3.0,42,0.00,,OVC003,0.00,VWS V14.01,2013-06-19 17:44:00,
2013-06-19 13:45:00,68.3,43.1,30.10,East,87,2.0,2.0,40,0.00,,OVC003,0.00,VWS V14.01,2013-06-19 17:45:00,
2013-06-19 13:49:00,68.3,43.7,30.11,East,87,2.0,2.0,41,0.00,,OVC003,0.00,VWS V14.01,2013-06-19 17:49:00,
2013-06-19 13:50:00,68.4,44.4,30.10,East,87,2.0,2.0,42,0.00,,OVC003,0.00,VWS V14.01,2013-06-19 17:50:00,
2013-06-19 13:54:00,68.4,45.0,30.10,East,87,2.0,2.0,43,0.00,,OVC003,0.00,VWS V14.01,2013-06-19 17:54:00,
2013-06-19 13:55:00,68.7,45.3,30.10,East,87,2.0,2.0,43,0.00,,OVC003,0.00,VWS V14.01,2013-06-19 17:55:00,
2013-06-19 13:59:00,68.6,44.6,30.10,East,87,2.0,2.0,42,0.00,,OVC003,0.00,VWS V14.01,2013-06-19 17:59:00,
2013-06-19 14:00:00,69.0,46.2,30.10,East,87,2.0,2.0,44,0.00,,OVC003,0.00,VWS V14.01,2013-06-19 18:00:00,
2013-06-19 14:04:00,68.9,46.1,30.10,East,87,2.0,2.0,44,0.00,,OVC003,0.00,VWS V14.01,2013-06-19 18:04:00,
2013-06-19 14:05:00,69.2,45.8,30.10,East,87,2.0,2.0,43,0.00,,OVC003,0.00,VWS V14.01,2013-06-19 18:05:00,
2013-06-19 14:09:00,69.2,46.4,30.10,East,87,2.0,2.0,44,0.00,,OVC003,0.00,VWS V14.01,2013-06-19 18:09:00,
2013-06-19 14:10:00,69.2,45.2,30.10,East,87,2.0,3.0,42,0.00,,OVC003,0.00,VWS V14.01,2013-06-19 18:10:00,
2013-06-19 14:14:00,69.2,44.5,30.10,East,87,3.0,3.0,41,0.00,,OVC003,0.00,VWS V14.01,2013-06-19 18:14:00,
2013-06-19 14:15:00,69.4,45.3,30.10,East,87,4.0,4.0,42,0.00,,OVC003,0.00,VWS V14.01,2013-06-19 18:15:00,
2013-06-19 14:19:00,69.3,44.6,30.10,East,87,2.0,2.0,41,0.00,,OVC003,0.00,VWS V14.01,2013-06-19 18:19:00,
2013-06-19 14:20:00,69.4,44.7,30.10,East,87,3.0,3.0,41,0.00,,OVC003,0.00,VWS V14.01,2013-06-19 18:20:00,
2013-06-19 14:24:00,69.3,44.0,30.10,East,87,2.0,2.0,40,0.00,,OVC003,0.00,VWS V14.01,2013-06-19 18:24:00,
2013-06-19 14:25:00,69.7,45.6,30.10,East,87,2.0,2.0,42,0.00,,OVC003,0.00,VWS V14.01,2013-06-19 18:25:00,
2013-06-19 14:29:00,69.6,45.5,30.10,East,87,3.0,3.0,42,0.00,,OVC003,0.00,VWS V14.01,2013-06-19 18:29:00,
2013-06-19 14:30:00,69.7,44.3,30.09,East,87,2.0,2.0,40,0.00,,OVC003,0.00,VWS V14.01,2013-06-19 18:30:00,
2013-06-19 14:34:00,69.7,45.0,30.10,East,87,3.0,3.0,41,0.00,,OVC003,0.00,VWS V14.01,2013-06-19 18:34:00,
2013-06-19 14:35:00,69.6,43.6,30.09,ENE,72,4.0,4.0,39,0.00,,OVC003,0.00,VWS V14.01,2013-06-19 18:35:00,
2013-06-19 14:39:00,69.6,43.6,30.09,ENE,73,2.0,3.0,39,0.00,,OVC003,0.00,VWS V14.01,2013-06-19 18:39:00,
2013-06-19 14:40:00,69.5,44.8,30.09,ENE,74,2.0,2.0,41,0.00,,OVC003,0.00,VWS V14.01,2013-06-19 18:40:00,
2013-06-19 14:44:00,69.5,44.8,30.09,ENE,73,2.0,2.0,41,0.00,,OVC003,0.00,VWS V14.01,2013-06-19 18:44:00,
2013-06-19 14:45:00,69.8,46.3,30.09,ENE,74,2.0,0.0,43,0.00,,OVC003,0.00,VWS V14.01,2013-06-19 18:45:00,
2013-06-19 14:49:00,69.7,46.2,30.09,ENE,74,2.0,0.0,43,0.00,,OVC003,0.00,VWS V14.01,2013-06-19 18:49:00,
2013-06-19 14:50:00,70.1,46.6,30.09,ENE,74,3.0,3.0,43,0.00,,OVC003,0.00,VWS V14.01,2013-06-19 18:50:00,
2013-06-19 14:54:00,70.1,47.8,30.09,ENE,74,2.0,2.0,45,0.00,,OVC003,0.00,VWS V14.01,2013-06-19 18:54:00,
2013-06-19 14:55:00,70.2,44.8,30.09,ENE,74,2.0,2.0,40,0.00,,OVC003,0.00,VWS V14.01,2013-06-19 18:55:00,
2013-06-19 14:59:00,70.2,44.8,30.09,ENE,74,2.0,2.0,40,0.00,,OVC003,0.00,VWS V14.01,2013-06-19 18:59:00,
2013-06-19 15:00:00,70.3,46.2,30.09,ENE,74,3.0,3.0,42,0.00,,OVC003,0.00,VWS V14.01,2013-06-19 19:00:00,
2013-06-19 15:04:00,70.2,46.1,30.09,ENE,74,2.0,2.0,42,0.00,,OVC003,0.00,VWS V14.01,2013-06-19 19:04:00,
2013-06-19 15:05:00,70.7,47.1,30.09,ENE,74,2.0,2.0,43,0.00,,OVC003,0.00,VWS V14.01,2013-06-19 19:05:00,
2013-06-19 15:09:00,70.6,46.4,30.09,ENE,74,2.0,2.0,42,0.00,,OVC003,0.00,VWS V14.01,2013-06-19 19:09:00,
2013-06-19 15:10:00,70.8,47.2,30.09,ENE,74,2.0,2.0,43,0.00,,OVC003,0.00,VWS V14.01,2013-06-19 19:10:00,
2013-06-19 15:14:00,70.8,46.6,30.09,ENE,74,2.0,2.0,42,0.00,,OVC003,0.00,VWS V14.01,2013-06-19 19:14:00,
2013-06-19 15:15:00,71.0,45.5,30.08,ENE,74,3.0,3.0,40,0.00,,OVC003,0.00,VWS V14.01,2013-06-19 19:15:00,
2013-06-19 15:19:00,70.9,47.3,30.08,ENE,74,2.0,2.0,43,0.00,,OVC003,0.00,VWS V14.01,2013-06-19 19:19:00,
2013-06-19 15:20:00,71.3,46.4,30.08,ENE,72,2.0,3.0,41,0.00,,OVC003,0.00,VWS V14.01,2013-06-19 19:20:00,
2013-06-19 15:24:00,71.3,46.4,30.08,ENE,72,2.0,3.0,41,0.00,,OVC003,0.00,VWS V14.01,2013-06-19 19:24:00,
2013-06-19 15:25:00,71.5,47.2,30.08,ENE,72,2.0,2.0,42,0.00,,OVC003,0.00,VWS V14.01,2013-06-19 19:25:00,
2013-06-19 15:29:00,71.5,47.2,30.08,ENE,72,2.0,2.0,42,0.00,,OVC003,0.00,VWS V14.01,2013-06-19 19:29:00,
2013-06-19 15:30:00,71.8,46.9,30.07,East,97,3.0,3.0,41,0.00,,OVC003,0.00,VWS V14.01,2013-06-19 19:30:00,
2013-06-19 15:34:00,71.8,46.9,30.07,ENE,72,3.0,3.0,41,0.00,,OVC003,0.00,VWS V14.01,2013-06-19 19:34:00,
2013-06-19 15:35:00,71.8,46.2,30.07,East,98,2.0,2.0,40,0.00,,OVC003,0.00,VWS V14.01,2013-06-19 19:35:00,
2013-06-19 15:40:00,71.8,46.2,30.07,East,98,2.0,2.0,40,0.00,,OVC003,0.00,VWS V14.01,2013-06-19 19:40:00,
2013-06-19 15:45:00,71.7,46.1,30.07,East,98,2.0,2.0,40,0.00,,OVC003,0.00,VWS V14.01,2013-06-19 19:45:00,
2013-06-19 15:50:00,71.8,46.9,30.08,East,98,4.0,4.0,41,0.00,,OVC003,0.00,VWS V14.01,2013-06-19 19:50:00,
2013-06-19 15:55:00,71.7,46.1,30.08,East,98,2.0,2.0,40,0.00,,OVC003,0.00,VWS V14.01,2013-06-19 19:55:00,
2013-06-19 16:00:00,71.8,47.5,30.08,East,98,2.0,2.0,42,0.00,,OVC003,0.00,VWS V14.01,2013-06-19 20:00:00,
2013-06-19 16:05:00,72.1,46.5,30.07,ESE,112,2.0,2.0,40,0.00,,OVC003,0.00,VWS V14.01,2013-06-19 20:05:00,
2013-06-19 16:10:00,72.5,47.5,30.07,ESE,118,2.0,2.0,41,0.00,,OVC003,0.00,VWS V14.01,2013-06-19 20:10:00,
2013-06-19 16:15:00,72.8,46.4,30.07,ESE,117,2.0,0.0,39,0.00,,OVC003,0.00,VWS V14.01,2013-06-19 20:15:00,
2013-06-19 16:20:00,73.2,46.1,30.08,ESE,118,3.0,3.0,38,0.00,,OVC003,0.00,VWS V14.01,2013-06-19 20:20:00,
2013-06-19 16:25:00,73.3,44.8,30.08,SW,219,2.0,2.0,36,0.00,,OVC003,0.00,VWS V14.01,2013-06-19 20:25:00,
2013-06-19 16:30:00,73.3,47.5,30.08,SW,219,2.0,2.0,40,0.00,,OVC003,0.00,VWS V14.01,2013-06-19 20:30:00,
2013-06-19 16:35:00,73.4,47.6,30.07,SW,218,2.0,2.0,40,0.00,,OVC003,0.00,VWS V14.01,2013-06-19 20:35:00,
2013-06-19 16:40:00,73.6,47.8,30.07,SW,218,2.0,2.0,40,0.00,,OVC003,0.00,VWS V14.01,2013-06-19 20:40:00,
2013-06-19 16:45:00,73.4,47.0,30.07,SW,216,2.0,2.0,39,0.00,,OVC003,0.00,VWS V14.01,2013-06-19 20:45:00,
2013-06-19 16:50:00,73.5,47.0,30.07,SW,216,2.0,2.0,39,0.00,,OVC003,0.00,VWS V14.01,2013-06-19 20:50:00,
2013-06-19 16:55:00,73.4,47.0,30.07,SW,216,2.0,2.0,39,0.00,,OVC003,0.00,VWS V14.01,2013-06-19 20:55:00,
2013-06-19 17:00:00,73.8,48.0,30.07,SW,216,2.0,2.0,40,0.00,,OVC003,0.00,VWS V14.01,2013-06-19 21:00:00,
2013-06-19 17:05:00,74.3,48.4,30.07,SW,216,3.0,3.0,40,0.00,,OVC003,0.00,VWS V14.01,2013-06-19 21:05:00,
2013-06-19 17:10:00,74.3,48.4,30.07,WSW,241,2.0,3.0,40,0.00,,OVC003,0.00,VWS V14.01,2013-06-19 21:10:00,
2013-06-19 17:15:00,74.0,47.5,30.07,WSW,240,2.0,2.0,39,0.00,,OVC003,0.00,VWS V14.01,2013-06-19 21:15:00,
2013-06-19 17:20:00,73.9,48.7,30.06,WSW,240,2.0,2.0,41,0.00,,OVC003,0.00,VWS V14.01,2013-06-19 21:20:00,
2013-06-19 17:25:00,73.9,46.7,30.06,WSW,240,2.0,2.0,38,0.00,,OVC003,0.00,VWS V14.01,2013-06-19 21:25:00,
2013-06-19 17:30:00,73.9,48.1,30.06,WSW,240,2.0,2.0,40,0.00,,OVC003,0.00,VWS V14.01,2013-06-19 21:30:00,
2013-06-19 17:35:00,73.9,47.4,30.05,WSW,240,2.0,2.0,39,0.00,,OVC003,0.00,VWS V14.01,2013-06-19 21:35:00,
2013-06-19 17:40:00,73.9,46.7,30.05,WSW,240,3.0,3.0,38,0.00,,OVC003,0.00,VWS V14.01,2013-06-19 21:40:00,
2013-06-19 17:45:00,73.9,47.4,30.05,WSW,240,2.0,2.0,39,0.00,,OVC003,0.00,VWS V14.01,2013-06-19 21:45:00,
2013-06-19 17:50:00,74.1,46.9,30.05,WSW,240,3.0,3.0,38,0.00,,OVC003,0.00,VWS V14.01,2013-06-19 21:50:00,
2013-06-19 17:55:00,74.2,47.0,30.05,WSW,240,2.0,2.0,38,0.00,,OVC003,0.00,VWS V14.01,2013-06-19 21:55:00,
2013-06-19 18:00:00,74.4,46.5,30.05,WSW,240,2.0,2.0,37,0.00,,OVC003,0.00,VWS V14.01,2013-06-19 22:00:00,
2013-06-19 18:05:00,74.4,46.5,30.05,WSW,240,2.0,2.0,37,0.00,,OVC003,0.00,VWS V14.01,2013-06-19 22:05:00,
2013-06-19 18:10:00,74.4,49.2,30.05,WSW,240,2.0,2.0,41,0.00,,OVC003,0.00,VWS V14.01,2013-06-19 22:10:00,
2013-06-19 18:15:00,74.2,47.7,30.05,WSW,240,2.0,2.0,39,0.00,,OVC003,0.00,VWS V14.01,2013-06-19 22:15:00,
2013-06-19 18:20:00,74.1,47.6,30.05,WSW,240,2.0,0.0,39,0.00,,OVC003,0.00,VWS V14.01,2013-06-19 22:20:00,
2013-06-19 18:25:00,74.0,46.1,30.05,WSW,240,2.0,0.0,37,0.00,,OVC003,0.00,VWS V14.01,2013-06-19 22:25:00,
2013-06-19 18:30:00,74.1,48.3,30.05,WSW,240,2.0,0.0,40,0.00,,OVC003,0.00,VWS V14.01,2013-06-19 22:30:00,
2013-06-19 18:35:00,74.6,46.6,30.05,WSW,240,3.0,3.0,37,0.00,,OVC003,0.00,VWS V14.01,2013-06-19 22:35:00,
2013-06-19 18:40:00,74.6,46.6,30.05,WSW,240,2.0,2.0,37,0.00,,OVC003,0.00,VWS V14.01,2013-06-19 22:40:00,
2013-06-19 18:41:00,74.7,48.8,30.05,WSW,240,2.0,0.0,40,0.00,,OVC003,0.00,VWS V14.01,2013-06-19 22:41:00,
2013-06-19 18:45:00,74.4,47.9,30.05,WSW,240,2.0,2.0,39,0.00,,OVC003,0.00,VWS V14.01,2013-06-19 22:45:00,
2013-06-19 18:46:00,74.6,46.6,30.05,WSW,240,2.0,0.0,37,0.00,,OVC003,0.00,VWS V14.01,2013-06-19 22:46:00,
2013-06-19 18:50:00,74.0,48.8,30.05,WSW,240,2.0,2.0,41,0.00,,OVC003,0.00,VWS V14.01,2013-06-19 22:50:00,
2013-06-19 18:51:00,74.4,47.2,30.05,WSW,240,2.0,0.0,38,0.00,,OVC003,0.00,VWS V14.01,2013-06-19 22:51:00,
2013-06-19 18:55:00,73.7,47.9,30.05,WSW,240,2.0,0.0,40,0.00,,OVC003,0.00,VWS V14.01,2013-06-19 22:55:00,
2013-06-19 18:56:00,74.0,48.8,30.05,WSW,240,2.0,0.0,41,0.00,,OVC003,0.00,VWS V14.01,2013-06-19 22:56:00,
2013-06-19 19:00:00,73.4,47.0,30.05,WSW,240,2.0,0.0,39,0.00,,OVC003,0.00,VWS V14.01,2013-06-19 23:00:00,
2013-06-19 19:01:00,73.7,47.9,30.05,WSW,240,2.0,0.0,40,0.00,,OVC003,0.00,VWS V14.01,2013-06-19 23:01:00,
2013-06-19 19:05:00,73.2,48.8,30.05,WSW,240,2.0,2.0,42,0.00,,OVC003,0.00,VWS V14.01,2013-06-19 23:05:00,
2013-06-19 19:06:00,73.5,47.0,30.05,WSW,240,2.0,0.0,39,0.00,,OVC003,0.00,VWS V14.01,2013-06-19 23:06:00,
2013-06-19 19:10:00,72.8,45.7,30.05,WSW,240,2.0,2.0,38,0.00,,OVC003,0.00,VWS V14.01,2013-06-19 23:10:00,
2013-06-19 19:11:00,73.1,48.7,30.05,WSW,240,2.0,0.0,42,0.00,,OVC003,0.00,VWS V14.01,2013-06-19 23:11:00,
2013-06-19 19:15:00,72.5,46.8,30.05,WSW,240,2.0,0.0,40,0.00,,OVC003,0.00,VWS V14.01,2013-06-19 23:15:00,
2013-06-19 19:16:00,72.8,45.7,30.05,WSW,240,2.0,0.0,38,0.00,,OVC003,0.00,VWS V14.01,2013-06-19 23:16:00,
2013-06-19 19:20:00,72.2,49.7,30.05,WSW,240,2.0,0.0,45,0.00,,OVC003,0.00,VWS V14.01,2013-06-19 23:20:00,
2013-06-19 19:21:00,72.4,46.7,30.05,WSW,240,2.0,0.0,40,0.00,,OVC003,0.00,VWS V14.01,2013-06-19 23:21:00,
2013-06-19 19:25:00,72.0,49.5,30.05,WSW,240,2.0,0.0,45,0.00,,OVC003,0.00,VWS V14.01,2013-06-19 23:25:00,
2013-06-19 19:26:00,72.2,48.5,30.05,WSW,240,2.0,0.0,43,0.00,,OVC003,0.00,VWS V14.01,2013-06-19 23:26:00,
2013-06-19 19:30:00,71.7,49.2,30.05,WSW,240,2.0,0.0,45,0.00,,OVC003,0.00,VWS V14.01,2013-06-19 23:30:00,
2013-06-19 19:31:00,72.0,48.9,30.05,WSW,240,2.0,0.0,44,0.00,,OVC003,0.00,VWS V14.01,2013-06-19 23:31:00,
2013-06-19 19:35:00,71.3,48.9,30.05,WSW,240,2.0,0.0,45,0.00,,OVC003,0.00,VWS V14.01,2013-06-19 23:35:00,
2013-06-19 19:36:00,71.7,49.2,30.05,WSW,240,2.0,0.0,45,0.00,,OVC003,0.00,VWS V14.01,2013-06-19 23:36:00,
2013-06-19 19:40:00,71.0,49.8,30.05,WSW,240,2.0,0.0,47,0.00,,OVC003,0.00,VWS V14.01,2013-06-19 23:40:00,
2013-06-19 19:41:00,71.3,48.9,30.05,WSW,240,2.0,0.0,45,0.00,,OVC003,0.00,VWS V14.01,2013-06-19 23:41:00,
2013-06-19 19:45:00,70.8,49.0,30.05,WSW,240,2.0,0.0,46,0.00,,OVC003,0.00,VWS V14.01,2013-06-19 23:45:00,
2013-06-19 19:46:00,71.0,49.8,30.05,WSW,240,2.0,0.0,47,0.00,,OVC003,0.00,VWS V14.01,2013-06-19 23:46:00,
2013-06-19 19:50:00,70.5,48.8,30.05,WSW,240,2.0,0.0,46,0.00,,OVC003,0.00,VWS V14.01,2013-06-19 23:50:00,
2013-06-19 19:51:00,70.7,48.9,30.05,WSW,240,2.0,0.0,46,0.00,,OVC003,0.00,VWS V14.01,2013-06-19 23:51:00,
2013-06-19 19:55:00,70.3,50.8,30.05,WSW,240,2.0,0.0,50,0.00,,OVC003,0.00,VWS V14.01,2013-06-19 23:55:00,
2013-06-19 19:58:00,70.4,49.2,30.05,WSW,240,2.0,0.0,47,0.00,,OVC003,0.00,VWS V14.01,2013-06-19 23:58:00,
2013-06-19 20:00:00,70.0,49.4,30.05,WSW,240,2.0,0.0,48,0.00,,OVC003,0.00,VWS V14.01,2013-06-20 00:00:00,
2013-06-19 20:03:00,70.2,49.6,30.05,WSW,240,2.0,0.0,48,0.00,,OVC003,0.00,VWS V14.01,2013-06-20 00:03:00,
2013-06-19 20:05:00,69.8,49.8,30.05,WSW,240,2.0,0.0,49,0.00,,OVC003,0.00,VWS V14.01,2013-06-20 00:05:00,
2013-06-19 20:08:00,69.9,49.9,30.05,WSW,240,2.0,0.0,49,0.00,,OVC003,0.00,VWS V14.01,2013-06-20 00:08:00,
2013-06-19 20:10:00,69.4,50.0,30.05,WSW,240,2.0,0.0,50,0.00,,OVC003,0.00,VWS V14.01,2013-06-20 00:10:00,
2013-06-19 20:13:00,69.7,49.7,30.05,WSW,240,2.0,0.0,49,0.00,,OVC003,0.00,VWS V14.01,2013-06-20 00:13:00,
2013-06-19 20:15:00,69.1,50.2,30.05,WSW,240,2.0,0.0,51,0.00,,OVC003,0.00,VWS V14.01,2013-06-20 00:15:00,
2013-06-19 20:18:00,69.3,49.9,30.05,WSW,240,2.0,0.0,50,0.00,,OVC003,0.00,VWS V14.01,2013-06-20 00:18:00,
2013-06-19 20:20:00,68.9,51.6,30.05,WSW,240,2.0,0.0,54,0.00,,OVC003,0.00,VWS V14.01,2013-06-20 00:20:00,
2013-06-19 20:23:00,69.0,51.2,30.05,WSW,240,2.0,0.0,53,0.00,,OVC003,0.00,VWS V14.01,2013-06-20 00:23:00,
2013-06-19 20:25:00,68.6,50.8,30.05,WSW,240,2.0,0.0,53,0.00,,OVC003,0.00,VWS V14.01,2013-06-20 00:25:00,
2013-06-19 20:28:00,68.8,51.0,30.05,WSW,240,2.0,0.0,53,0.00,,OVC003,0.00,VWS V14.01,2013-06-20 00:28:00,
2013-06-19 20:30:00,68.3,50.5,30.05,WSW,240,2.0,0.0,53,0.00,,OVC003,0.00,VWS V14.01,2013-06-20 00:30:00,
2013-06-19 20:33:00,68.4,50.6,30.05,WSW,240,2.0,0.0,53,0.00,,OVC003,0.00,VWS V14.01,2013-06-20 00:33:00,
2013-06-19 20:35:00,67.9,50.7,30.05,WSW,240,2.0,0.0,54,0.00,,OVC003,0.00,VWS V14.01,2013-06-20 00:35:00,
2013-06-19 20:38:00,68.1,50.3,30.05,WSW,240,2.0,0.0,53,0.00,,OVC003,0.00,VWS V14.01,2013-06-20 00:38:00,
2013-06-19 20:40:00,67.7,51.0,30.05,WSW,240,2.0,0.0,55,0.00,,OVC003,0.00,VWS V14.01,2013-06-20 00:40:00,
2013-06-19 20:43:00,67.8,50.6,30.05,WSW,240,2.0,0.0,54,0.00,,OVC003,0.00,VWS V14.01,2013-06-20 00:43:00,
2013-06-19 20:45:00,67.3,51.6,30.05,WSW,240,2.0,0.0,57,0.00,,OVC003,0.00,VWS V14.01,2013-06-20 00:45:00,
2013-06-19 20:48:00,67.5,50.8,30.05,WSW,240,2.0,0.0,55,0.00,,OVC003,0.00,VWS V14.01,2013-06-20 00:48:00,
2013-06-19 20:50:00,66.9,51.7,30.05,WSW,240,2.0,0.0,58,0.00,,OVC003,0.00,VWS V14.01,2013-06-20 00:50:00,
2013-06-19 20:53:00,67.1,51.4,30.05,WSW,240,2.0,0.0,57,0.00,,OVC003,0.00,VWS V14.01,2013-06-20 00:53:00,
2013-06-19 20:55:00,66.6,51.8,30.05,WSW,240,2.0,0.0,59,0.00,,OVC003,0.00,VWS V14.01,2013-06-20 00:55:00,
2013-06-19 20:58:00,66.7,51.9,30.05,WSW,240,2.0,0.0,59,0.00,,OVC003,0.00,VWS V14.01,2013-06-20 00:58:00,
2013-06-19 21:00:00,66.2,51.5,30.06,WSW,240,2.0,0.0,59,0.00,,OVC003,0.00,VWS V14.01,2013-06-20 01:00:00,
2013-06-19 21:03:00,66.4,51.7,30.05,WSW,240,2.0,0.0,59,0.00,,OVC003,0.00,VWS V14.01,2013-06-20 01:03:00,
2013-06-19 21:05:00,65.8,51.5,30.06,WSW,240,2.0,0.0,60,0.00,,OVC003,0.00,VWS V14.01,2013-06-20 01:05:00,
2013-06-19 21:08:00,66.0,51.7,30.06,WSW,240,2.0,0.0,60,0.00,,OVC003,0.00,VWS V14.01,2013-06-20 01:08:00,
2013-06-19 21:10:00,65.5,51.7,30.06,WSW,240,2.0,0.0,61,0.00,,OVC003,0.00,VWS V14.01,2013-06-20 01:10:00,
2013-06-19 21:13:00,65.6,51.8,30.06,WSW,240,2.0,0.0,61,0.00,,OVC003,0.00,VWS V14.01,2013-06-20 01:13:00,
2013-06-19 21:15:00,65.2,51.0,30.06,WSW,240,2.0,0.0,60,0.00,,OVC003,0.00,VWS V14.01,2013-06-20 01:15:00,
2013-06-19 21:18:00,65.4,51.2,30.06,WSW,240,2.0,0.0,60,0.00,,OVC003,0.00,VWS V14.01,2013-06-20 01:18:00,
2013-06-19 21:20:00,64.9,51.2,30.06,WSW,240,2.0,0.0,61,0.00,,OVC003,0.00,VWS V14.01,2013-06-20 01:20:00,
2013-06-19 21:23:00,65.0,51.2,30.06,WSW,240,2.0,0.0,61,0.00,,OVC003,0.00,VWS V14.01,2013-06-20 01:23:00,
2013-06-19 21:25:00,64.6,50.9,30.06,WSW,240,2.0,0.0,61,0.00,,OVC003,0.00,VWS V14.01,2013-06-20 01:25:00,
2013-06-19 21:28:00,64.8,51.0,30.06,WSW,240,2.0,0.0,61,0.00,,OVC003,0.00,VWS V14.01,2013-06-20 01:28:00,
2013-06-19 21:30:00,64.3,51.0,30.06,WSW,240,2.0,0.0,62,0.00,,OVC003,0.00,VWS V14.01,2013-06-20 01:30:00,
2013-06-19 21:33:00,64.5,51.2,30.06,WSW,240,2.0,0.0,62,0.00,,OVC003,0.00,VWS V14.01,2013-06-20 01:33:00,
2013-06-19 21:35:00,63.8,51.0,30.06,WSW,240,2.0,0.0,63,0.00,,OVC003,0.00,VWS V14.01,2013-06-20 01:35:00,
2013-06-19 21:38:00,64.0,51.2,30.06,WSW,240,2.0,0.0,63,0.00,,OVC003,0.00,VWS V14.01,2013-06-20 01:38:00,
2013-06-19 21:40:00,63.4,51.4,30.06,WSW,240,2.0,0.0,65,0.00,,OVC003,0.00,VWS V14.01,2013-06-20 01:40:00,
2013-06-19 21:43:00,63.6,51.2,30.06,WSW,240,2.0,0.0,64,0.00,,OVC003,0.00,VWS V14.01,2013-06-20 01:43:00,
2013-06-19 21:45:00,63.0,51.1,30.06,WSW,240,2.0,0.0,65,0.00,,OVC003,0.00,VWS V14.01,2013-06-20 01:45:00,
2013-06-19 21:48:00,63.2,51.2,30.06,WSW,240,2.0,0.0,65,0.00,,OVC003,0.00,VWS V14.01,2013-06-20 01:48:00,
2013-06-19 21:50:00,62.5,51.4,30.06,WSW,240,2.0,0.0,67,0.00,,OVC003,0.00,VWS V14.01,2013-06-20 01:50:00,
2013-06-19 21:53:00,62.7,51.2,30.06,WSW,240,2.0,0.0,66,0.00,,OVC003,0.00,VWS V14.01,2013-06-20 01:53:00,
2013-06-19 21:55:00,62.1,51.0,30.06,WSW,240,2.0,0.0,67,0.00,,OVC003,0.00,VWS V14.01,2013-06-20 01:55:00,
2013-06-19 21:58:00,62.3,51.2,30.06,WSW,240,2.0,0.0,67,0.00,,OVC003,0.00,VWS V14.01,2013-06-20 01:58:00,
2013-06-19 22:00:00,61.8,51.1,30.07,WSW,240,2.0,0.0,68,0.00,,OVC003,0.00,VWS V14.01,2013-06-20 02:00:00,
2013-06-19 22:03:00,62.0,51.3,30.06,WSW,240,2.0,0.0,68,0.00,,OVC003,0.00,VWS V14.01,2013-06-20 02:03:00,
2013-06-19 22:05:00,61.6,51.3,30.07,WSW,240,2.0,0.0,69,0.00,,OVC003,0.00,VWS V14.01,2013-06-20 02:05:00,
2013-06-19 22:08:00,61.7,51.0,30.07,WSW,240,2.0,0.0,68,0.00,,OVC003,0.00,VWS V14.01,2013-06-20 02:08:00,
2013-06-19 22:10:00,61.4,50.8,30.07,WSW,240,2.0,0.0,68,0.00,,OVC003,0.00,VWS V14.01,2013-06-20 02:10:00,
2013-06-19 22:13:00,61.5,50.8,30.07,WSW,240,2.0,0.0,68,0.00,,OVC003,0.00,VWS V14.01,2013-06-20 02:13:00,
2013-06-19 22:15:00,61.1,50.5,30.08,WSW,240,2.0,0.0,68,0.00,,OVC003,0.00,VWS V14.01,2013-06-20 02:15:00,
2013-06-19 22:18:00,61.3,50.7,30.07,WSW,240,2.0,0.0,68,0.00,,OVC003,0.00,VWS V14.01,2013-06-20 02:18:00,
2013-06-19 22:20:00,60.9,50.7,30.08,WSW,240,2.0,0.0,69,0.00,,OVC003,0.00,VWS V14.01,2013-06-20 02:20:00,
2013-06-19 22:23:00,61.0,50.8,30.08,WSW,240,2.0,0.0,69,0.00,,OVC003,0.00,VWS V14.01,2013-06-20 02:23:00,
2013-06-19 22:25:00,60.6,50.8,30.08,WSW,240,2.0,0.0,70,0.00,,OVC003,0.00,VWS V14.01,2013-06-20 02:25:00,
2013-06-19 22:28:00,60.7,50.9,30.08,WSW,240,2.0,0.0,70,0.00,,OVC003,0.00,VWS V14.01,2013-06-20 02:28:00,
2013-06-19 22:30:00,60.5,50.7,30.08,WSW,240,2.0,0.0,70,0.00,,OVC003,0.00,VWS V14.01,2013-06-20 02:30:00,
2013-06-19 22:33:00,60.5,50.7,30.08,WSW,240,2.0,0.0,70,0.00,,OVC003,0.00,VWS V14.01,2013-06-20 02:33:00,
2013-06-19 22:35:00,60.3,50.9,30.08,WSW,240,2.0,0.0,71,0.00,,OVC003,0.00,VWS V14.01,2013-06-20 02:35:00,
2013-06-19 22:38:00,60.4,51.0,30.08,WSW,240,2.0,0.0,71,0.00,,OVC003,0.00,VWS V14.01,2013-06-20 02:38:00,
2013-06-19 22:40:00,60.1,50.7,30.08,WSW,240,2.0,0.0,71,0.00,,OVC003,0.00,VWS V14.01,2013-06-20 02:40:00,
2013-06-19 22:43:00,60.2,50.8,30.08,WSW,240,2.0,0.0,71,0.00,,OVC003,0.00,VWS V14.01,2013-06-20 02:43:00,
2013-06-19 22:45:00,59.9,50.5,30.08,WSW,240,2.0,0.0,71,0.00,,OVC003,0.00,VWS V14.01,2013-06-20 02:45:00,
2013-06-19 22:48:00,60.0,50.6,30.08,WSW,240,2.0,0.0,71,0.00,,OVC003,0.00,VWS V14.01,2013-06-20 02:48:00,
2013-06-19 22:50:00,59.6,51.0,30.08,WSW,240,2.0,0.0,73,0.00,,OVC003,0.00,VWS V14.01,2013-06-20 02:50:00,
2013-06-19 22:53:00,59.7,50.7,30.08,WSW,240,2.0,0.0,72,0.00,,OVC003,0.00,VWS V14.01,2013-06-20 02:53:00,
2013-06-19 22:55:00,59.5,50.8,30.08,WSW,240,2.0,0.0,73,0.00,,OVC003,0.00,VWS V14.01,2013-06-20 02:55:00,
2013-06-19 22:59:00,59.5,50.8,30.08,WSW,240,2.0,0.0,73,0.00,,OVC003,0.00,VWS V14.01,2013-06-20 02:59:00,
2013-06-19 23:00:00,59.3,51.0,30.08,WSW,240,2.0,0.0,74,0.00,,OVC003,0.00,VWS V14.01,2013-06-20 03:00:00,
2013-06-19 23:04:00,59.3,51.0,30.08,WSW,240,2.0,0.0,74,0.00,,OVC003,0.00,VWS V14.01,2013-06-20 03:04:00,
2013-06-19 23:05:00,59.0,50.7,30.08,WSW,240,2.0,0.0,74,0.00,,OVC003,0.00,VWS V14.01,2013-06-20 03:05:00,
2013-06-19 23:09:00,59.1,50.8,30.08,WSW,240,2.0,0.0,74,0.00,,OVC003,0.00,VWS V14.01,2013-06-20 03:09:00,
2013-06-19 23:10:00,59.0,50.7,30.08,WSW,240,2.0,0.0,74,0.00,,OVC003,0.00,VWS V14.01,2013-06-20 03:10:00,
2013-06-19 23:14:00,59.0,50.7,30.08,WSW,240,2.0,0.0,74,0.00,,OVC003,0.00,VWS V14.01,2013-06-20 03:14:00,
2013-06-19 23:15:00,59.0,51.1,30.08,WSW,240,2.0,0.0,75,0.00,,OVC003,0.00,VWS V14.01,2013-06-20 03:15:00,
2013-06-19 23:19:00,59.0,51.1,30.08,WSW,240,2.0,0.0,75,0.00,,OVC003,0.00,VWS V14.01,2013-06-20 03:19:00,
2013-06-19 23:20:00,58.7,51.2,30.08,WSW,240,2.0,0.0,76,0.00,,OVC003,0.00,VWS V14.01,2013-06-20 03:20:00,
2013-06-19 23:24:00,58.7,50.8,30.08,WSW,240,2.0,0.0,75,0.00,,OVC003,0.00,VWS V14.01,2013-06-20 03:24:00,
2013-06-19 23:25:00,58.4,50.9,30.08,WSW,240,2.0,0.0,76,0.00,,OVC003,0.00,VWS V14.01,2013-06-20 03:25:00,
2013-06-19 23:29:00,58.5,51.0,30.08,WSW,240,2.0,0.0,76,0.00,,OVC003,0.00,VWS V14.01,2013-06-20 03:29:00,
2013-06-19 23:30:00,58.2,51.0,30.08,WSW,240,2.0,0.0,77,0.00,,OVC003,0.00,VWS V14.01,2013-06-20 03:30:00,
2013-06-19 23:34:00,58.2,50.7,30.08,WSW,240,2.0,0.0,76,0.00,,OVC003,0.00,VWS V14.01,2013-06-20 03:34:00,
2013-06-19 23:35:00,58.0,50.8,30.08,WSW,240,2.0,0.0,77,0.00,,OVC003,0.00,VWS V14.01,2013-06-20 03:35:00,
2013-06-19 23:39:00,58.1,50.9,30.08,WSW,240,2.0,0.0,77,0.00,,OVC003,0.00,VWS V14.01,2013-06-20 03:39:00,
2013-06-19 23:40:00,57.8,50.7,30.08,WSW,240,2.0,0.0,77,0.00,,OVC003,0.00,VWS V14.01,2013-06-20 03:40:00,
2013-06-19 23:44:00,57.9,50.7,30.08,WSW,240,2.0,0.0,77,0.00,,OVC003,0.00,VWS V14.01,2013-06-20 03:44:00,
2013-06-19 23:45:00,57.5,50.7,30.08,WSW,240,2.0,0.0,78,0.00,,OVC003,0.00,VWS V14.01,2013-06-20 03:45:00,
2013-06-19 23:49:00,57.6,50.8,30.08,WSW,240,2.0,0.0,78,0.00,,OVC003,0.00,VWS V14.01,2013-06-20 03:49:00,
2013-06-19 23:50:00,57.3,50.5,30.08,WSW,240,2.0,0.0,78,0.00,,OVC003,0.00,VWS V14.01,2013-06-20 03:50:00,
2013-06-19 23:54:00,57.4,50.6,30.08,WSW,240,2.0,0.0,78,0.00,,OVC003,0.00,VWS V14.01,2013-06-20 03:54:00,
2013-06-19 23:55:00,56.9,50.5,30.08,WSW,240,2.0,0.0,79,0.00,,OVC003,0.00,VWS V14.01,2013-06-20 03:55:00,
2013-06-19 23:59:00,57.1,50.7,30.08,WSW,240,2.0,0.0,79,0.00,,OVC003,0.00,VWS V14.01,2013-06-20 03:59:00,